OSNSAT (41939 NORAD) Tracking and Keplerian Element Data

This shows tracking and keplerian element data for the satellite.

Feedback or suggestion? Click here.




ElementValue
Catalog41939
NameOSNSAT
Epoch Orbit5577
Epoch Day11.28402027
Epoch Year2018
RAAN38.9582
Inclination51.6147
Eccentricity0.0001091
Argument of Perigee231.1728
Mean Anonmoly128.9202
Mean Motion16.43639489
Decay Rate0.11925055
L11 41939U 98067KZ 18011.28402027 .11925055 12489-4 54124-3 0 9997
L22 41939 51.6147 38.9582 0001091 231.1728 128.9202 16.43639489 55773

Live tracking and technical data element details for OSNSAT (NORAD 41939). OSNSAT can be tracked NOW for your location showing map with azimuth and elevation plus other details from your city location.

Track the satellite on the map from your city or location and see movement details for azimuth, elevation, latitude, longitude, range, height, and movement on the map or in text.







IsCatalogInMostPopularTable: catalog: 41939, numindb: 119
Update: records affected: 1



GetName: 41939 OSNSAT

Hit Count: updated at: Fri, 16 Nov 2018 11:25:16 GMT